Theta_e
312 311 315 313 319 315 320 322 322 324 325 329 329 342 343 342 343 345 344 344 340 337 340 343 346 348 345 344 343 341 340 331 328 323 323 323 323 323 321 320 322 325 325 325 332 331 323 321 321
313 313 314 315 318 321 322 319 322 325 325 326 327 336 341 343 344 344 342 343 342 339 343 343 346 346 345 343 343 342 339 332 330 323 322 322 321 319 320 321 324 326 326 328 325 325 327 324 322
315 313 314 313 314 322 324 319 324 325 327 326 327 342 342 342 340 342 342 342 343 341 340 344 345 346 345 343 343 342 339 332 332 324 322 320 318 319 320 322 324 325 326 326 327 328 329 326 322
313 314 317 312 316 317 320 321 322 323 326 326 326 325 330 346 348 344 342 342 346 343 340 342 343 345 345 344 343 342 338 333 332 325 321 318 319 320 321 323 325 325 326 326 326 326 327 326 322
314 312 308 315 315 315 318 320 322 323 323 325 322 323 325 333 340 345 342 345 348 343 342 342 345 345 344 344 343 340 337 334 333 326 321 318 321 321 322 323 324 324 325 325 326 325 325 324 324
316 311 308 309 312 314 316 319 321 322 322 323 323 322 331 346 345 344 342 344 349 344 341 341 345 344 344 344 342 340 338 335 334 327 322 319 321 322 323 325 326 326 326 326 325 325 325 323 324
312 307 307 307 308 308 313 318 316 317 318 319 323 321 328 328 329 347 343 344 348 345 342 338 341 344 344 343 340 339 337 336 335 329 323 320 321 323 324 324 324 325 324 324 323 322 321 322 322
317 307 310 307 310 310 311 314 317 318 318 320 321 318 320 331 335 346 344 343 347 346 343 340 341 344 343 341 338 337 336 337 336 330 324 322 320 323 324 323 322 322 323 322 322 322 321 321 321
317 312 313 310 309 310 311 312 314 316 318 318 318 319 323 321 334 348 344 344 345 346 344 341 340 342 340 339 336 337 338 337 336 330 325 323 321 322 324 323 321 321 322 323 323 323 323 323 322
313 315 316 309 309 311 311 312 313 315 316 318 318 320 320 322 333 344 345 344 347 346 344 342 338 338 338 336 335 335 336 336 335 329 324 323 323 321 324 323 322 322 322 322 323 324 324 325 325
311 317 316 314 314 313 311 312 314 315 314 316 317 317 321 323 340 346 344 344 348 345 344 342 338 337 335 334 333 333 335 335 333 328 324 323 323 321 323 324 324 324 323 323 323 323 327 327 324
308 310 315 317 317 316 316 318 316 316 315 317 318 318 320 324 344 349 349 348 348 345 344 342 338 336 334 333 332 331 333 332 329 325 323 323 323 322 321 324 324 329 338 333 327 330 338 338 334
309 308 311 314 316 317 318 317 318 319 320 320 320 320 320 322 346 349 352 350 348 344 343 341 338 335 334 332 331 330 330 329 326 323 321 322 322 321 321 322 324 339 340 339 339 340 341 340 339
311 311 311 312 312 314 316 317 318 320 321 321 321 322 322 321 334 352 352 350 348 345 342 341 339 336 334 332 330 329 329 328 327 325 323 322 321 321 322 322 332 339 341 341 341 341 341 340 340
311 310 310 310 311 311 313 313 314 317 319 320 321 322 322 322 330 353 353 351 350 349 345 341 339 337 334 333 332 330 330 330 330 330 329 327 324 323 332 334 336 338 339 340 340 339 340 340 341
312 311 310 309 310 311 313 311 312 314 316 318 319 320 321 322 322 354 354 352 351 351 347 342 340 338 335 334 333 332 332 332 333 333 333 332 331 327 334 340 340 340 341 341 342 342 343 343 343
312 314 312 312 309 311 311 314 314 315 317 317 319 319 320 321 322 354 354 353 353 352 347 340 338 338 336 335 334 333 333 334 335 335 336 336 336 333 335 340 343 344 344 345 345 345 345 344 344
313 313 314 315 313 310 311 312 312 314 315 316 317 319 320 321 322 352 353 354 354 353 351 348 342 338 337 336 334 334 334 334 334 337 336 336 338 338 336 343 345 343 344 344 344 345 345 345 345
311 312 312 311 311 312 311 312 312 312 315 314 315 317 319 321 319 351 351 349 354 354 353 352 351 350 341 337 335 334 335 336 341 341 343 342 344 342 338 341 344 344 344 340 343 344 345 343 342
310 312 310 309 310 312 314 315 313 311 314 315 317 317 317 319 318 327 344 349 350 350 353 353 353 352 344 338 335 336 340 343 344 343 346 346 346 346 346 342 344 344 340 330 339 343 340 340 339
308 309 311 311 311 311 312 316 316 314 314 316 318 319 318 320 320 330 331 347 345 350 352 349 351 352 347 339 336 337 341 341 344 344 344 345 345 345 345 345 344 338 334 338 340 341 338 336 336
308 308 310 312 312 313 315 317 313 314 314 314 315 317 319 318 320 323 336 339 343 344 351 350 350 350 349 341 337 340 340 342 346 346 344 346 348 347 347 343 334 334 329 340 340 337 335 336 335
308 308 311 311 313 314 315 315 315 312 314 314 314 317 318 318 319 321 330 336 339 342 344 348 349 348 348 342 339 340 339 344 343 344 346 342 339 334 336 331 332 331 336 340 338 336 335 337 336
310 310 310 310 311 316 314 315 315 312 315 316 315 316 318 318 318 320 320 324 328 334 340 336 344 347 347 342 340 342 339 340 346 345 343 336 334 333 333 333 328 336 336 336 336 335 336 335 333
310 309 309 313 314 316 313 315 315 314 313 313 313 315 318 319 318 319 320 326 328 331 332 333 342 346 346 344 343 340 340 339 341 341 335 333 329 332 328 328 337 335 336 337 335 333 330 332 331
312 310 308 309 313 311 312 315 315 315 315 315 316 317 319 319 318 319 320 321 326 328 332 336 340 344 345 345 342 337 338 338 339 338 337 328 328 327 329 335 335 335 336 335 332 331 330 325 321
312 314 310 311 312 311 311 313 313 313 314 314 314 315 317 320 317 318 318 321 324 329 332 336 341 342 344 342 340 340 341 338 338 333 332 329 329 330 335 335 334 334 333 330 329 325 318 313 312
312 312 315 315 313 317 313 313 314 314 314 314 319 312 316 319 317 317 318 321 326 332 336 337 341 341 344 342 343 341 340 339 332 334 335 333 334 335 332 332 333 331 328 325 318 313 312 310 308
314 314 312 313 311 314 315 313 313 313 318 313 314 322 316 317 316 319 333 338 338 338 337 338 341 343 343 343 341 342 341 338 332 333 336 335 334 333 332 329 327 324 316 313 312 311 307 307 309
313 313 313 313 314 314 312 310 320 323 324 322 325 329 318 316 320 331 339 342 339 341 342 342 344 345 343 340 340 338 337 336 336 335 333 329 327 325 324 319 314 313 313 311 308 307 309 311 314
Wind_Speed
12 13 8 6 1 4 4 8 3 4 3 9 5 8 10 4 7 5 11 20 23 31 36 34 32 29 26 23 20 17 13 11 11 10 11 12 12 13 15 16 17 15 13 12 12 11 9 7 7
11 10 10 4 4 3 6 6 11 9 6 4 5 6 8 11 20 8 10 27 26 27 35 34 33 30 27 24 21 18 14 12 11 11 12 12 13 15 16 17 16 14 12 11 11 10 8 7 7
10 12 7 5 5 13 10 7 9 6 17 6 4 4 5 5 22 19 15 23 27 25 32 34 32 30 27 24 22 19 16 14 12 11 12 14 15 16 17 17 15 14 13 12 11 9 8 7 7
10 9 2 4 10 10 7 4 8 7 3 8 5 6 7 11 6 15 12 23 24 26 31 32 31 31 28 25 22 19 17 15 13 12 13 15 17 17 17 17 15 14 12 11 10 9 8 7 7
13 5 2 4 8 6 4 12 1 2 2 3 6 6 7 10 10 11 16 26 25 31 33 32 31 30 28 25 22 20 18 16 14 13 14 16 17 17 17 15 14 12 11 11 10 9 8 8 9
7 3 1 10 8 9 7 10 7 7 6 9 9 9 9 8 6 4 16 23 24 29 33 32 31 29 27 25 23 21 19 17 14 13 14 16 17 16 15 13 13 12 12 11 11 10 10 11 11
6 4 6 5 6 9 5 7 7 9 7 8 8 5 12 17 19 8 16 24 26 29 33 31 31 29 27 25 24 22 19 17 15 13 14 16 17 16 14 13 12 11 10 10 9 9 10 10 12
7 4 4 7 11 10 7 10 5 15 17 31 18 6 11 18 18 11 22 29 30 33 34 33 32 32 29 27 24 22 20 18 16 14 14 16 17 16 14 12 11 10 9 8 7 6 7 8 9
11 3 10 9 7 5 1 3 11 8 16 17 11 22 10 22 17 16 24 28 31 38 37 35 34 32 30 28 26 23 21 19 18 16 15 16 17 17 14 11 10 9 9 8 7 7 7 8 9
7 7 11 6 7 4 6 4 8 4 3 4 10 18 12 23 23 24 28 31 35 42 41 38 36 35 33 30 28 26 25 22 20 18 17 17 17 16 14 12 10 9 9 8 8 8 6 5 6
8 13 12 4 15 12 6 6 14 5 9 13 14 19 15 21 25 33 32 34 40 43 42 40 38 36 34 32 30 29 27 25 22 20 18 17 17 17 15 13 11 9 8 9 9 7 5 5 7
5 10 21 4 23 5 4 4 5 22 19 7 9 20 21 19 28 37 38 38 41 44 42 40 38 36 35 32 32 31 29 27 24 21 19 18 18 17 16 14 12 11 9 7 8 7 4 3 4
6 3 4 21 28 21 18 14 9 16 16 16 17 20 26 20 24 36 37 41 42 44 44 42 39 37 36 34 32 31 29 25 22 21 20 19 18 17 16 14 14 14 10 7 6 5 4 4 5
4 3 13 19 18 11 14 19 18 1 6 14 16 19 22 20 24 32 35 41 43 42 42 41 40 38 36 33 31 30 27 23 22 21 19 18 17 16 14 17 16 13 9 7 5 4 6 8 10
10 8 8 7 5 8 9 17 26 27 31 31 29 22 22 23 18 37 40 46 41 38 41 42 41 39 37 34 31 27 24 23 22 19 18 17 16 15 13 12 13 11 9 7 7 8 10 12 15
6 3 3 9 11 6 18 31 4 21 25 29 30 27 29 28 19 35 39 43 41 39 40 40 41 39 38 34 29 28 26 25 23 21 19 17 15 15 14 13 11 10 9 8 9 12 16 17 18
3 5 5 5 9 7 15 8 5 18 17 22 24 23 22 22 17 32 34 40 39 35 35 37 38 38 35 32 30 29 28 26 22 20 18 18 17 17 16 14 12 10 9 9 10 14 20 19 18
5 2 4 3 1 10 10 15 9 6 16 19 18 16 16 18 19 33 30 35 40 37 34 33 33 35 35 33 31 30 28 26 22 20 20 21 19 19 19 16 13 11 8 13 15 17 20 20 21
12 12 9 4 9 4 7 13 11 10 9 11 20 28 23 18 15 33 31 25 40 36 35 35 36 32 36 35 35 32 31 27 22 20 18 18 18 19 20 17 13 9 5 11 21 22 22 23 22
14 13 9 6 10 7 8 10 10 10 13 19 20 20 21 16 15 26 36 43 33 32 34 34 35 33 34 36 36 32 30 26 23 20 21 19 23 23 19 17 16 10 6 6 20 19 18 19 18
14 12 8 8 7 15 11 11 8 5 11 23 29 26 21 25 18 23 33 41 38 38 34 35 35 35 34 36 37 35 30 26 24 22 22 21 20 18 20 18 18 5 1 13 19 16 15 15 15
15 9 9 5 5 5 2 5 6 8 8 9 17 25 29 27 27 24 29 38 41 38 36 35 35 33 34 36 37 34 26 23 22 23 20 22 15 10 18 14 5 2 10 17 13 15 15 15 15
11 7 8 6 6 3 5 3 6 5 8 12 14 30 30 26 29 30 31 32 35 36 36 37 36 34 35 37 38 29 21 21 19 20 15 3 3 6 3 12 7 17 19 14 13 14 15 15 15
2 5 7 3 3 5 9 7 4 5 13 16 8 20 32 25 29 27 31 35 37 36 38 36 38 39 38 37 37 24 21 17 13 15 12 11 11 12 2 3 5 14 16 15 11 10 11 14 15
8 7 2 8 6 4 9 8 12 6 6 6 10 19 29 28 30 34 38 40 41 40 40 40 42 42 40 36 30 20 16 13 9 9 6 9 6 7 5 6 13 15 14 10 8 11 15 16 16
13 10 5 6 6 9 5 9 12 22 15 13 4 25 27 29 33 37 41 41 42 42 43 42 41 38 33 27 22 17 15 11 11 8 3 16 19 14 13 14 16 14 10 10 12 13 14 13 14
4 8 8 2 3 4 4 11 7 7 7 6 9 20 32 32 32 37 39 42 45 44 42 40 37 31 28 23 23 19 15 10 9 2 10 5 17 20 21 16 13 8 9 9 9 11 11 13 16
6 9 5 3 3 5 7 19 10 7 13 11 5 10 30 31 28 32 35 39 41 42 39 33 32 30 26 26 15 13 11 15 11 17 25 20 23 20 14 11 8 6 7 9 10 10 13 16 18
6 4 4 5 4 4 5 9 6 11 2 11 10 9 17 26 27 32 31 30 30 31 32 33 31 28 24 17 14 12 15 15 16 17 27 25 19 13 9 6 6 8 7 7 11 15 16 16 16
6 7 5 6 5 3 2 5 3 4 5 5 7 11 11 20 29 31 32 35 35 36 35 31 29 27 24 19 20 20 17 18 24 27 23 18 16 13 9 6 3 3 8 12 15 14 12 12 13
Wind_Direction
228 221 213 179 74 67 237 238 244 207 211 141 120 189 211 254 187 212 326 174 179 171 171 172 174 175 177 179 178 172 175 168 163 164 166 164 163 161 159 156 155 154 152 149 152 152 151 148 149
212 201 180 164 136 178 242 195 213 217 171 331 320 246 205 240 226 284 317 175 171 170 170 172 175 175 177 179 178 175 174 167 162 162 164 165 162 158 157 157 159 157 155 157 159 156 154 154 159
193 180 164 154 184 216 233 200 213 234 261 279 292 246 204 223 249 257 293 178 168 173 173 173 175 175 176 178 178 178 177 171 164 162 163 162 160 159 160 163 167 167 163 162 163 170 171 169 171
170 172 182 157 220 248 192 158 172 149 223 234 255 271 257 251 270 238 238 170 173 174 174 176 177 176 176 179 181 179 180 173 167 166 166 164 163 163 167 171 175 177 176 178 178 175 179 184 183
175 163 190 242 245 252 214 238 191 102 334 256 339 271 272 274 271 257 175 171 176 175 175 177 178 177 177 181 182 182 182 177 171 170 168 169 168 168 171 175 181 185 187 190 190 187 188 192 193
171 137 145 225 232 251 233 213 213 225 242 273 307 288 280 304 287 261 185 177 182 178 176 177 179 180 180 182 183 184 184 179 178 175 172 173 173 172 172 179 183 184 184 185 189 193 198 199 200
156 126 217 215 249 242 238 203 184 170 198 235 247 311 284 289 300 267 192 180 183 185 180 180 180 181 182 184 186 186 185 184 182 181 177 177 178 178 178 181 183 187 186 188 191 197 202 207 208
202 144 225 210 224 259 191 212 187 213 238 247 245 249 270 334 300 253 192 186 188 188 187 183 182 182 184 185 186 187 188 187 187 188 184 183 183 185 183 183 183 186 184 181 179 183 193 203 213
193 199 230 221 177 203 114 152 199 230 209 201 198 224 256 324 285 224 192 188 191 187 188 186 185 185 185 187 185 187 187 190 192 192 191 190 190 190 188 185 181 178 172 170 170 172 178 190 203
188 215 224 179 189 221 200 219 274 316 206 229 240 223 268 321 257 222 198 193 191 187 189 189 188 187 186 189 188 188 190 194 197 197 197 194 195 195 191 188 181 177 176 180 184 190 193 200 209
209 239 230 228 225 240 245 219 251 226 268 229 249 269 287 318 241 224 220 206 195 190 191 191 190 189 189 190 192 193 193 194 198 201 199 198 197 195 195 193 188 182 189 196 196 192 201 223 237
248 230 246 237 239 253 214 235 225 226 235 238 248 282 284 306 236 224 210 201 195 193 194 194 194 192 192 194 196 197 195 197 199 199 200 201 200 199 199 197 192 182 168 179 194 182 197 229 242
249 258 272 235 252 264 268 256 247 258 251 253 259 260 268 289 248 232 221 199 195 194 197 197 195 196 197 198 200 201 200 200 200 200 201 201 201 202 202 197 192 179 177 161 161 195 228 249 261
260 254 256 266 267 248 256 267 259 140 223 253 254 260 264 265 259 221 212 202 196 196 201 200 199 200 202 204 205 205 202 200 201 203 203 202 203 200 201 199 190 189 190 182 199 246 247 259 269
283 286 280 230 237 235 255 267 240 248 252 263 265 265 268 271 256 219 217 207 197 200 204 203 202 202 204 207 207 205 202 204 206 206 206 207 206 200 196 196 196 194 191 201 225 246 265 274 278
322 274 216 240 187 241 171 255 144 234 227 237 252 261 268 276 263 212 213 206 197 200 204 203 205 206 207 209 206 204 206 209 209 209 209 210 206 207 200 198 187 189 207 230 255 272 280 280 284
251 258 236 309 200 187 195 257 234 242 214 228 236 248 255 268 241 205 211 209 200 203 200 202 207 210 211 209 208 210 214 217 214 216 218 219 216 210 203 201 198 212 242 271 273 292 295 296 292
237 246 306 224 308 211 236 242 296 301 224 234 237 236 245 251 235 203 208 209 206 204 203 202 205 208 211 211 212 215 218 222 221 223 227 226 222 209 204 201 212 228 242 272 304 299 300 298 297
238 268 282 303 300 331 248 258 252 248 243 240 241 245 243 245 220 205 212 220 207 205 205 203 208 205 210 210 213 217 219 215 214 219 218 212 206 209 212 213 219 255 275 314 303 298 297 297 299
229 229 243 282 288 292 293 290 257 215 216 235 240 240 229 224 210 204 205 206 218 216 210 208 212 212 210 214 215 218 220 218 221 217 215 214 219 217 219 215 217 225 260 263 281 284 295 297 302
220 224 223 236 276 288 292 284 232 221 211 221 233 243 237 218 211 202 204 211 214 216 213 213 217 214 214 214 214 219 224 236 226 221 228 239 246 249 231 228 227 131 73 266 270 292 295 295 298
236 210 226 239 221 239 157 287 249 183 206 211 212 225 237 221 215 207 202 205 212 218 217 215 212 214 216 216 216 218 241 232 224 231 234 244 235 214 191 180 65 80 271 275 293 293 295 294 292
242 188 204 235 211 207 246 302 267 171 200 213 209 214 224 221 207 202 198 197 197 203 203 204 208 214 216 219 217 228 233 226 237 229 217 203 200 194 141 47 95 251 251 264 285 292 291 290 295
147 160 183 236 200 233 221 209 267 191 202 217 210 207 216 208 205 203 202 189 189 193 192 197 205 210 215 219 218 232 225 240 230 229 226 62 100 121 234 261 171 249 261 270 283 283 288 293 300
202 143 198 213 202 237 184 223 248 259 261 216 181 192 213 208 204 204 201 199 193 190 191 198 205 211 215 218 222 223 224 242 222 182 117 61 20 78 105 174 256 250 255 271 285 291 294 298 292
186 178 174 193 170 223 194 223 234 229 249 258 224 195 197 204 204 202 202 198 198 194 197 203 207 214 216 218 219 226 221 229 161 145 72 80 103 145 183 232 236 243 256 274 284 291 291 290 300
210 202 210 196 189 114 178 257 298 224 222 224 234 186 195 207 198 196 198 197 199 199 201 205 208 210 211 205 216 221 210 193 138 340 129 105 174 186 199 207 212 239 263 276 286 287 291 306 315
169 163 191 242 196 178 180 231 226 188 208 208 214 200 199 203 198 193 190 192 197 199 201 205 205 200 199 206 207 204 206 156 166 157 168 179 189 175 177 191 232 259 271 278 285 308 319 326 329
181 193 170 151 181 175 172 229 204 237 163 187 200 213 203 197 191 184 172 171 168 171 178 185 187 187 186 182 181 189 185 171 164 161 163 163 170 175 193 211 238 253 275 312 330 329 330 335 343
236 191 190 179 238 244 263 257 252 233 209 233 221 202 180 184 173 165 150 148 156 160 164 171 169 165 165 162 148 134 138 152 147 147 154 151 158 162 180 199 228 322 336 332 331 341 352 3 2